Location: Frankfurt+(oder)
(51.7984°N, 12.2168°E)
Time: 03:58:58
(UTC+01:00)

ISS - Pass Details

Date: 10 February 2018
Orbit: 402 x 407 km, 51.6° (Epoch: 23 February)

Event Time Altitude Azimuth Distance (km) Brightness Sun altitude
Rises 18:40:03 0° 282° (WNW) 2,322 1.5 -13.4°
Reaches altitude 10° 18:42:21 10° 269° (W) 1,460 0.4 -13.7°
Maximum altitude 18:45:06 25° 212° (SSW) 858 -1.8 -14.1°
Drops below altitude 10° 18:47:50 10° 155° (SSE) 1,454 -1.2 -14.6°
Enters shadow 18:48:13 - 151° (SSE) 1,592 -1.1 -14.6°
